Temp
20 20 18 18 17 16 16 17 17 17 17 17 16 16 16 15 15 15 15 15 15 15
19 18 18 17 16 16 16 16 16 16 16 15 15 15 15 14 14 14 14 14 14 14
17 17 17 16 16 15 16 16 15 15 15 15 14 14 14 14 13 14 14 14 13 13
16 16 15 15 15 15 15 14 14 15 14 14 14 14 13 12 12 12 12 12 12 12
15 15 15 15 15 15 15 15 15 15 15 14 14 13 12 12 11 11 11 12 11 11
15 15 15 15 15 15 15 15 14 14 14 14 13 13 12 11 11 10 10 10 9 9
16 16 15 15 15 14 14 14 14 13 13 12 12 11 11 11 10 10 9 9 9 9
16 15 14 14 13 13 13 13 12 12 12 11 11 11 11 10 9 9 8 8 8 8
14 13 13 12 12 12 12 12 12 11 11 11 11 10 10 11 10 9 8 8 8 8
13 12 12 12 12 13 12 12 11 11 11 10 10 10 11 10 9 9 9 8 7 7
13 13 12 12 12 11 11 11 11 10 10 10 10 10 10 9 9 8 8 9 7 5
11 11 10 10 10 10 10 10 10 10 10 9 9 9 9 8 8 8 8 8 7 5
9 9 9 9 9 9 9 8 8 8 8 8 8 8 8 8 6 6 6 7 7 6
8 8 8 7 6 6 6 7 8 8 7 7 7 7 7 7 6 4 2 2 2 3
Height
739 744 746 750 755 759 762 765 768 772 776 780 784 787 791 794 797 799 802 804 805 806
738 741 743 748 753 756 759 763 766 770 774 779 782 785 788 790 794 796 798 801 805 805
737 741 744 748 751 753 757 761 765 768 773 777 780 784 786 789 791 793 793 795 796 799
737 740 744 747 749 753 757 761 765 768 772 776 779 781 784 787 789 791 792 793 793 794
738 740 743 746 749 753 756 760 763 766 770 773 776 779 780 782 785 787 789 791 792 791
740 742 744 745 748 751 755 759 763 767 770 773 774 776 778 780 782 785 786 787 788 790
739 744 746 748 749 751 755 759 762 765 768 771 774 775 775 777 778 780 784 785 784 786
739 742 746 749 751 753 755 758 761 763 765 768 771 773 774 774 774 779 780 780 781 783
737 742 746 748 750 753 755 758 760 762 764 766 766 768 769 768 772 773 775 773 776 776
737 742 746 749 751 752 754 756 757 759 760 762 764 764 764 765 769 769 768 768 769 769
738 741 743 746 749 751 753 755 755 758 760 762 764 762 760 763 765 764 764 765 765 765
736 738 742 745 748 751 753 754 755 757 757 761 763 761 760 760 760 759 759 760 760 761
734 737 739 743 746 749 751 754 755 755 755 756 757 759 759 759 757 756 755 755 755 755
732 734 736 740 745 746 748 751 752 751 752 754 754 753 754 753 751 750 750 749 748 750
Wind_Speed
20 18 21 25 26 27 28 29 27 25 23 20 18 17 16 15 16 14 14 15 17 18
20 18 20 21 24 26 27 26 22 21 18 16 12 11 10 9 7 7 7 8 10 13
21 21 22 24 24 25 25 25 22 19 16 14 13 11 9 8 8 9 9 10 12 13
23 24 24 24 23 21 21 20 18 18 16 13 12 11 10 7 5 5 6 8 9 10
22 21 20 19 19 20 20 19 20 18 17 15 13 11 10 8 6 6 7 7 8 10
17 18 19 21 21 21 20 18 17 16 14 13 12 10 8 7 5 4 4 5 7 9
18 19 20 20 21 20 19 18 16 14 13 10 8 6 5 3 1 3 6 7 7 10
20 21 20 19 18 18 18 16 14 11 9 7 4 4 4 1 2 5 7 9 11 14
20 19 17 18 17 16 15 13 10 8 7 6 4 3 3 3 5 8 11 13 15 16
19 19 19 18 16 15 13 10 7 5 3 1 0 4 4 7 10 12 14 15 18 20
20 18 17 16 11 5 4 4 4 3 1 2 6 6 7 11 15 16 17 19 20 20
20 15 9 7 8 6 4 3 2 5 4 9 11 12 13 15 18 20 22 22 21 21
14 13 13 11 7 3 1 4 6 6 8 11 14 16 19 21 19 22 26 27 27 25
17 15 11 6 2 4 7 11 11 12 13 17 19 20 18 15 16 21 22 22 23 21
Wind_Direction
191 195 176 190 193 190 189 192 191 194 197 202 209 219 224 225 232 239 247 253 250 251
195 183 178 187 195 195 198 196 188 187 180 178 187 184 195 199 206 223 237 259 267 269
167 167 166 166 165 165 167 169 170 170 175 173 171 174 180 186 202 216 225 239 249 253
157 158 158 155 156 160 158 155 155 157 159 164 164 168 177 184 200 225 241 249 256 260
156 152 151 154 151 150 148 151 153 155 157 161 166 174 178 176 185 204 223 246 266 274
164 162 156 150 148 148 145 144 147 152 154 156 162 167 173 182 192 233 259 280 282 285
161 154 147 146 144 145 147 146 145 147 156 160 164 167 150 158 184 328 307 289 301 301
155 149 146 145 144 143 145 146 147 146 143 152 159 156 162 138 356 284 288 294 293 294
155 148 145 146 146 144 139 138 139 134 145 172 180 251 327 349 307 297 288 292 289 293
149 153 156 150 145 140 143 151 157 174 170 120 294 278 312 319 294 284 285 288 291 294
158 149 140 137 142 155 144 137 131 142 159 250 244 273 293 283 284 286 289 290 285 283
138 130 128 120 120 124 137 144 206 238 261 261 277 279 284 293 294 290 287 285 283 279
141 138 130 128 128 135 253 270 289 292 283 287 286 294 298 295 289 282 279 280 281 279
142 132 132 131 210 268 276 281 274 270 276 279 284 289 286 282 276 271 276 277 280 282